User: anonymous
Location: Vancouver
(49.2500°N, 123.1330°W)
Time: 02:08:32
(UTC-07:00)
Language:

JAS-1B - Orbit

View from above orbital plane
View from above orbital plane
View from above satellite
View from above satellite

Ground track
Ground track

The orbit data is extracted from the following two-line orbital elements,

1 20480U 90013C   14244.83253606 -.00000036  00000-0 -11140-4 0  8233
2 20480 099.0527 193.5838 0540512 180.1207 239.4468 12.83395271150969
Epoch (UTC): 01 September 2014 19:58:51
Eccentricity: 0.0540512
inclination: 99.0527°
perigee height: 911 km
apogee height: 1744 km
right ascension of ascending node: 193.5838°
argument of perigee: 180.1207°
revolutions per day: 12.83395271
mean anomaly at epoch: 239.4468°
orbit number at epoch: 15096

The dashed part of the orbit path shows where the satellite is in the earth's shadow,  

DLR